Weather History for KMWH - October, 2014

Change the Weather History Date:

Friday, October 31, 2014

  Actual Average Record
Temperature  
Mean Temperature 50 °F 43 °F  
Max Temperature 55 °F 55 °F 65 °F (2013)
Min Temperature 45 °F 32 °F 5 °F (2002)
Degree Days  
Heating Degree Days 15 22  
Month to date heating degree days 296 486  
Since 1 July heating degree days 348 637  
Cooling Degree Days 0 0  
Month to date cooling degree days 4 1  
Year to date cooling degree days 952 615  
Moisture  
Dew Point 49 °F    
Average Humidity 88    
Maximum Humidity 93    
Minimum Humidity 83    
Precipitation  
Precipitation 0.14 in 0.03 in 0.30 in (1998)
Month to date precipitation 1.06 0.65  
Year to date precipitation 5.24 6.47  
Sea Level Pressure  
Sea Level Pressure 29.76 in    
Wind  
Wind Speed 5 mph (SSE)    
Max Wind Speed 15 mph    
Max Gust Speed 19 mph    
Visibility 6 miles    
Events Rain    
T = Trace of Precipitation, MM = Missing Value Source: NWS Daily Summary

Daily Weather History Graph

Daily Weather History Graph

Search for Another Location

Airport or City:

Trip Planner

Search our weather history database for the weather conditions in past years. The results will help you decide how hot, cold, wet, or windy it might be!

Date:

Astronomy

Oct. 31, 2014 Rise Set
Actual Time 7:39 AM PDT 5:41 PM PDT
Civil Twilight 7:07 AM PDT 6:13 PM PDT
Nautical Twilight 6:31 AM PDT 6:49 PM PDT
Astronomical Twilight 5:55 AM PDT 7:25 PM PDT
Moon 2:24 PM PDT (10/31) 12:06 AM PDT (10/31)
Length of Visible Light 11h 06m
Length of Day
10h 02m
First Quarter, 58% of the Moon is Illuminated
Oct 31
First Quarter
Nov 6
Full
Nov 14
Last Quarter
Nov 22
New
Nov 29
First Quarter

Hourly Weather History & Observations

Time (PDT) Temp. Dew Point Humidity Pressure Visibility Wind Dir Wind Speed Gust Speed Precip Events Conditions
12:52 AM 51.1 °F 46.9 °F 86% 29.78 in 10.0 mi NW 6.9 mph - N/A   Overcast
1:52 AM 51.1 °F 46.9 °F 86% 29.80 in 10.0 mi WSW 9.2 mph - N/A   Scattered Clouds
2:52 AM 50.0 °F 48.0 °F 93% 29.75 in 10.0 mi Calm Calm - N/A   Overcast
3:52 AM 50.0 °F 48.0 °F 93% 29.75 in 10.0 mi SW 3.5 mph - 0.00 in   Mostly Cloudy
4:52 AM 50.0 °F 48.0 °F 93% 29.75 in 7.0 mi SW 6.9 mph - 0.01 in Rain Light Rain
5:52 AM 50.0 °F 48.0 °F 93% 29.75 in 7.0 mi Calm Calm - 0.00 in   Overcast
6:52 AM 50.0 °F 48.0 °F 93% 29.74 in 5.0 mi Calm Calm - 0.02 in Rain Light Rain
7:52 AM 48.9 °F 48.0 °F 97% 29.72 in 3.0 mi East 6.9 mph - 0.01 in   Overcast
8:43 AM 48.9 °F 48.0 °F 97% 29.74 in 3.0 mi ESE 3.5 mph - 0.01 in   Overcast
8:52 AM 50.0 °F 48.0 °F 93% 29.75 in 3.0 mi East 3.5 mph - 0.01 in   Overcast
9:09 AM 50.0 °F 48.2 °F 94% 29.73 in 3.0 mi ESE 4.6 mph - N/A   Overcast
9:31 AM 50.0 °F 48.9 °F 96% 29.74 in 2.5 mi ESE 5.8 mph - 0.00 in Rain Light Rain
9:52 AM 50.0 °F 48.9 °F 96% 29.74 in 3.0 mi East 5.8 mph - 0.00 in   Overcast
9:58 AM 51.1 °F 48.9 °F 92% 29.73 in 2.5 mi East 4.6 mph - N/A   Overcast
10:30 AM 51.1 °F 48.9 °F 92% 29.74 in 2.5 mi ESE 4.6 mph - 0.00 in Rain Light Rain
10:52 AM 51.1 °F 50.0 °F 96% 29.75 in 2.5 mi SE 6.9 mph - 0.00 in Rain Light Rain
11:52 AM 52.0 °F 50.0 °F 93% 29.75 in 2.5 mi SSE 5.8 mph - 0.02 in Rain Light Rain
12:52 PM 53.1 °F 51.1 °F 93% 29.75 in 2.5 mi SSE 6.9 mph - 0.02 in Rain Light Rain
1:39 PM 54.0 °F 52.0 °F 93% 29.75 in 2.5 mi SSE 6.9 mph - 0.00 in   Overcast
1:52 PM 53.6 °F 51.8 °F 94% 29.75 in 3.0 mi South 8.1 mph - N/A   Overcast
2:44 PM 54.0 °F 52.0 °F 93% 29.75 in 2.5 mi SSE 12.7 mph - 0.02 in Rain Rain
2:52 PM 54.0 °F 52.0 °F 93% 29.75 in 2.5 mi SSE 11.5 mph - 0.03 in Rain Light Rain
3:35 PM 54.0 °F 52.0 °F 93% 29.74 in 6.0 mi SSE 13.8 mph - 0.02 in   Overcast
3:50 PM 53.6 °F 51.8 °F 94% 29.77 in 5.0 mi SSW 10.4 mph - 0.02 in   Mostly Cloudy
3:52 PM 54.0 °F 52.0 °F 93% 29.78 in 5.0 mi SSW 9.2 mph - 0.02 in   Mostly Cloudy
4:52 PM 54.0 °F 52.0 °F 93% 29.78 in 5.0 mi South 8.1 mph - N/A   Scattered Clouds
5:52 PM 53.1 °F 51.1 °F 93% 29.78 in 8.0 mi South 5.8 mph - N/A   Scattered Clouds
6:52 PM 53.1 °F 48.0 °F 83% 29.78 in 10.0 mi SSW 5.8 mph - N/A   Mostly Cloudy
7:52 PM 50.0 °F 46.9 °F 89% 29.78 in 10.0 mi Calm Calm - N/A   Partly Cloudy
8:52 PM 48.9 °F 46.0 °F 90% 29.79 in 10.0 mi South 8.1 mph - N/A   Clear
9:52 PM 48.0 °F 46.0 °F 93% 29.79 in 10.0 mi South 4.6 mph - N/A   Clear
10:52 PM 46.9 °F 44.1 °F 90% 29.81 in 10.0 mi SW 4.6 mph - N/A   Partly Cloudy
11:52 PM 46.0 °F 44.1 °F 93% 29.79 in 10.0 mi Calm Calm - N/A   Partly Cloudy